Orbital Elements at Epoch 2459000.5 (2020-May-31.0) TDB
Reference: JPL 24 (heliocentric ecliptic J2000)
Element | Value | Uncertainty (1-sigma) | Units |
e | .0678595076040711 | 3.3519e-08 | |
a | 2.365287073291565 | 8.0077e-09 | au |
q | 2.204779857155725 | 7.7623e-08 | au |
i | 6.349026509961522 | 3.4722e-06 | deg |
node | 130.700683767528 | 2.9997e-05 | deg |
peri | 76.84539849738673 | 3.8533e-05 | deg |
M | 105.7553882147217 | 2.4902e-05 | deg |
tp | 2458610.176933225781 (2019-May-06.67693323) | 9.155e-05 | TDB |
period | 1328.691676242727 3.64 | 6.7475e-06 1.847e-08 | d yr |
n | .2709432191356897 | 1.3759e-09 | deg/d |
Q | 2.525794289427405 | 8.5511e-09 | au |
|
| | Orbit Determination Parameters
Additional Information
|